Retour au catalogue

STARLINK-36795

ActifCommunicationsSSO
NORAD 67809·PAYLOAD·🇺🇸 United States

Lancé Feb 15, 2026 depuis Vandenberg Space Force Base

Loading…

Prochains Passages (prochaines 24 heures)

TLE

FraisSource: CelesTrak SupGP

Époque: Sep 15, 2026, 03:17 UTC

1 67809C 26032N   26258.13729167 -.00053704  00000+0 -16672-2 0  2584
2 67809  97.2852  84.5776 0001602  90.3746 160.5595 15.33465017    17

Suivez STARLINK-36795 en temps réel avec AllMySat

Download on the App Store